Powrót do katalogu

DIWEI ZHINENG YINGJI 1

AktywnyNaukaSSO
NORAD 57582·PAYLOAD·🇨🇳 China
Ta nazwa satelity nie została jeszcze potwierdzona przez oficjalne źródła.

Wystrzelony Aug 10, 2023 z Jiuquan Satellite Launch Center

Loading…

Następne Przeloty (najbliższe 24 godziny)

TLE

ŚwieżeSource: Space-Track

Epoka: Sep 14, 2026, 13:19 UTC

1 57582U 23117C   26257.55506742  .00019616  00000-0  42666-3 0  9997
2 57582  97.4007 339.9720 0004763 268.0446  92.0257 15.44346020172340

Śledź DIWEI ZHINENG YINGJI 1 w czasie rzeczywistym z AllMySat

Download on the App Store